{"data":{"norad_id":65745,"epoch":"2026-05-24T22:33:44.704800Z","epoch_age_seconds":86974,"freshness":"FRESH","line1":"1 65745U 25216M   26144.94010075  .00019046  00000+0  65337-3 0  9992","line2":"2 65745  53.1608 338.3052 0001243  88.0631 272.0512 15.30207338 38194","mean_motion":15.30207338,"eccentricity":0.0001243,"inclination_deg":53.1608,"raan_deg":338.3052,"arg_perigee_deg":88.0631,"mean_anomaly_deg":272.0512,"bstar":0.00065337,"rev_number":3819,"period_min":94.104894430979,"perigee_km":474.34129062273,"apogee_km":476.0450285004,"semimajor_km":6853.3301595616,"source":"CELESTRAK","updated_at":"2026-05-25T13:38:20.931624Z"}}